TimeMDT,TemperatureF,Dew PointF,Humidity,Sea Level PressureIn,VisibilityMPH,Wind Direction,Wind SpeedMPH,Gust SpeedMPH,PrecipitationIn,Events,Conditions,WindDirDegrees,DateUTC
12:51 AM,46.9,25.0,42,30.07,10.0,Calm,Calm,-,N/A,,Clear,0,2012-09-03 06:51:00
1:51 AM,43.0,30.9,62,30.08,10.0,Calm,Calm,-,N/A,,Clear,0,2012-09-03 07:51:00
2:51 AM,41.0,24.1,51,30.08,10.0,Calm,Calm,-,N/A,,Clear,0,2012-09-03 08:51:00
3:51 AM,41.0,21.9,47,30.08,10.0,Calm,Calm,-,N/A,,Clear,0,2012-09-03 09:51:00
4:51 AM,37.9,19.9,48,30.09,10.0,Calm,Calm,-,N/A,,Clear,0,2012-09-03 10:51:00
5:51 AM,36.0,21.9,57,30.11,10.0,Calm,Calm,-,N/A,,Clear,0,2012-09-03 11:51:00
7:51 AM,36.0,24.1,62,30.13,10.0,Calm,Calm,-,N/A,,Clear,0,2012-09-03 13:51:00
8:51 AM,46.0,23.0,40,30.13,10.0,Calm,Calm,-,N/A,,Clear,0,2012-09-03 14:51:00
9:51 AM,53.1,21.9,30,30.12,10.0,South,3.5,-,N/A,,Clear,170,2012-09-03 15:51:00
10:51 AM,57.9,27.0,31,30.12,10.0,Calm,Calm,-,N/A,,Clear,0,2012-09-03 16:51:00
11:51 AM,64.9,30.0,27,30.12,10.0,South,5.8,-,N/A,,Clear,180,2012-09-03 17:51:00
12:51 PM,68.0,27.0,21,30.09,10.0,Variable,3.5,-,N/A,,Clear,0,2012-09-03 18:51:00
1:51 PM,73.9,21.0,14,30.06,10.0,SSW,6.9,-,N/A,,Clear,200,2012-09-03 19:51:00
2:51 PM,77.0,14.0,9,30.05,10.0,WSW,12.7,21.9,N/A,,Clear,240,2012-09-03 20:51:00
3:51 PM,77.0,14.0,9,30.04,10.0,SSW,10.4,20.7,N/A,,Clear,210,2012-09-03 21:51:00
4:51 PM,78.1,15.1,9,30.03,10.0,South,13.8,-,N/A,,Clear,180,2012-09-03 22:51:00
5:51 PM,75.9,12.9,9,30.03,10.0,SW,8.1,18.4,N/A,,Clear,230,2012-09-03 23:51:00
6:51 PM,75.0,16.0,11,30.01,10.0,SW,9.2,-,N/A,,Clear,220,2012-09-04 00:51:00
7:51 PM,72.0,18.0,13,30.01,10.0,South,3.5,-,N/A,,Clear,170,2012-09-04 01:51:00
8:51 PM,61.0,21.9,22,30.02,10.0,ENE,4.6,-,N/A,,Clear,60,2012-09-04 02:51:00
9:51 PM,57.0,21.9,26,30.03,10.0,NNE,3.5,-,N/A,,Clear,20,2012-09-04 03:51:00
10:51 PM,55.0,30.9,40,30.04,10.0,NNW,3.5,-,N/A,,Clear,340,2012-09-04 04:51:00
11:51 PM,53.1,30.9,43,30.04,10.0,Calm,Calm,-,N/A,,Clear,0,2012-09-04 05:51:00